Retour au catalogue

KOMPSAT 5

ActifScienceSSO
NORAD 39227·PAYLOAD·🇰🇷 South Korea

Lancé Aug 22, 2013 depuis Dombarovsky

Loading…

Prochains Passages (prochaines 24 heures)

TLE

FraisSource: Space-Track

Époque: Sep 14, 2026, 14:52 UTC

1 39227U 13042A   26257.61981213  .00000200  00000-0  18571-4 0  9994
2 39227  97.6199  83.0771 0003329 161.8879 198.2467 15.04543056717307

Suivez KOMPSAT 5 en temps réel avec AllMySat

Download on the App Store